Regional Weather Roundup
Issued by NWS

Home | Current Version | Previous Version | Text Only | Print | Product List | Glossary Off
Versions: 1 2 3 4 5 6 7 8 9 10 11 12 13 14 15 16 17 18 19 20 21 22 23 24 25 26 27 28 29 30 31 32 33 34 35 36 37 38 39 40 41 42 43 44 45 46 47 48 49 50

000
ASUS43 KDTX 200401
RWRMI
MICHIGAN HOURLY REGIONAL WEATHER ROUNDUP
NATIONAL WEATHER SERVICE DETROIT/PONTIAC MI
1100 PM EST SUN NOV 19 2017

NOTE: "FAIR" INDICATES FEW OR NO CLOUDS BELOW 12,000 FEET WITH NO
SIGNIFICANT WEATHER AND/OR OBSTRUCTION TO VISIBILITY.

MIZ047>049-052>055-059>063-066>070-074>076-081>083-200500-
SOUTHEAST LOWER MICHIGAN

CITY           SKY/WX    TMP DP  RH WIND       PRES   REMARKS
ADRIAN         CLOUDY    30  22  72 W5        30.03R WCI  25
ALMA           CLOUDY    28  22  79 SW6       29.97R WCI  22
ANN ARBOR      PTCLDY    27  21  78 S5        30.00S WCI  22
BAD AXE        CLOUDY    28  16  61 W8G18     29.94R WCI  20
CARO           CLOUDY    28  19  70 SW6       29.95F WCI  21
DETROIT CITY   CLOUDY   N/A N/A N/A W12       30.00S
DETROIT        CLOUDY    31  20  63 SW8       30.01R WCI  23
FLINT          PTCLDY    27  19  72 W6        29.98S WCI  20
GROSSE ILE     CLOUDY    31  21  66 W6        30.01S WCI  25
HILLSDALE      CLOUDY    30  21  69 W7        30.00R WCI  23
HOWELL         PTCLDY    28  23  84 SW5       29.98S WCI  22

CITY           SKY/WX    TMP DP  RH WIND       PRES   REMARKS
JACKSON        CLOUDY    30  21  69 SW7       30.00R WCI  23
LAMBERTVILLE   PTCLDY    33  24  69 SW7       30.03S WCI  27
LANSING        CLOUDY    28  22  78 SW6       29.99S WCI  22
LAPEER         MOCLDY    28  19  70 W6        29.97S WCI  21
MASON          CLOUDY    31  23  72 SW6       29.99S WCI  25
MONROE         CLOUDY    32  23  69 W8        30.02S WCI  25
MT. CLEMENS    MOCLDY    30  20  65 W9        29.97R WCI  22
PONTIAC        MOCLDY    28  20  71 W9        29.97R WCI  19
PORT HOPE        N/A     30  17  58 W9G18     29.91R WCI  22
PORT HURON     CLOUDY    30  18  59 W5        29.97S WCI  25
TRI CITIES     CLOUDY    28  21  75 SW10      29.97S WCI  19
MIDLAND        CLOUDY    28  20  73 SW5       29.95S WCI  22
TROY           CLOUDY    32  21  64 W5        30.01S WCI  27
SAGINAW HB     CLOUDY    28  21  74 SW7       29.96S WCI  21
$$
MIZ043>046-050>051-056>058-064>065-071>073-077>080-200500-
SOUTHWEST LOWER MICHIGAN

CITY           SKY/WX    TMP DP  RH WIND       PRES   REMARKS
BATTLE CREEK   CLOUDY    30  22  72 SW8       30.01R WCI  22
BENTON HARBOR  CLEAR     35  23  61 W16       30.05R WCI  25
BIG RAPIDS     CLOUDY    29  19  66 W7        29.94R WCI  22
COLDWATER      PTCLDY    28  21  74 SW7       30.02R WCI  21
FREMONT        CLOUDY    31  21  65 W3        29.97R
HOLLAND        CLOUDY    36  24  62 W10G21    30.02R WCI  28
GRAND RAPIDS   CLOUDY    33  22  63 W8        29.98S WCI  26
IONIA          CLOUDY    29  23  76 SW7       29.97S WCI  22
KALAMAZOO      MOCLDY    29  19  66 SW5       30.02R WCI  24
LUDINGTON      CLOUDY    34  20  57 W8        29.95F WCI  27
MARSHALL       CLOUDY    29  22  74 SW9       30.00R WCI  21
MOUNT PLEASANT MOCLDY    28  20  71 SW5       29.94S WCI  23
MUSKEGON       CLOUDY    37  22  54 W13G21    29.99S WCI  29
SOUTH HAVEN    PTCLDY    37  25  63 W15G21    30.03R WCI  27
$$
MIZ016>042-200500-
NORTHERN LOWER MICHIGAN

CITY           SKY/WX    TMP DP  RH WIND       PRES   REMARKS
ALPENA         CLOUDY    29  21  72 W6        29.87S WCI  23
BEAVER ISLAND  CLOUDY    30  17  59 W9G16     29.88S WCI  21
BELLAIRE       CLOUDY    32  22  66 W3        29.90S
CADILLAC       MOCLDY    26  19  74 W12       29.89R WCI  15
CHARLEVOIX     CLOUDY    32  20  60 W17G26    29.90S WCI  21
FRANKFORT      CLOUDY    34  21  58 W13G21    29.93S WCI  25
GAYLORD        CLOUDY    24  18  77 SW8       29.84R WCI  15
GRAYLING       PTCLDY    23  17  78 W8        29.88R WCI  14
HARBOR SPRINGS CLOUDY    29  17  61 W8        29.86F WCI  21
MANISTEE       CLOUDY    33  20  58 W15G24    29.94S WCI  23
OSCODA         CLOUDY    28  17  65 W12       29.90S WCI  17
PELLSTON       CLOUDY    27  16  63 W8        29.87S WCI  19
ROGERS CITY    CLOUDY    29  17  62 W9G16     29.87R WCI  20
TRAVERSE CITY  CLOUDY    29  19  66 S3        29.90S
$$
MIZ007>008-015-200500-
EASTERN UPPER MICHIGAN

CITY           SKY/WX    TMP DP  RH WIND       PRES   REMARKS
KINROSS        CLOUDY    24  16  71 W15G21    29.82S WCI  11
MACKINAC ISLAN CLOUDY    30  18  60 W20G28    29.84S WCI  18
NEWBERRY       CLOUDY    23  15  71 W15       29.83S WCI  10
S. S. MARIE    LGT SNOW  26  19  74 W14G21    29.79S WCI  14
MUNISING         N/A     25  17  72 SW7       29.86S WCI  17
$$
MIZ004>006-011>014-085-200500-
CENTRAL UPPER MICHIGAN

CITY           SKY/WX    TMP DP  RH WIND       PRES   REMARKS
MANISTIQUE     CLOUDY    24   8  49 SW5       29.87F WCI  18
ESCANABA       CLOUDY    25  18  74 CALM      29.89F
MENOMINEE      CLOUDY    27  16  63 SW6       29.91F WCI  20
SAWYER-GWINN   CLOUDY    21  16  81 S3        29.83F
$$
MIZ001>003-009>011-084-200500-
WESTERN UPPER MICHIGAN

CITY           SKY/WX    TMP DP  RH WIND       PRES   REMARKS
IRON MOUNTAIN  CLOUDY    24  12  60 CALM      29.84F
HOUGHTON       FLURRIES  24  19  81 W9        29.79F WCI  14
COPPER HARBOR    N/A     30  20  66 N21G26    29.81S WCI  17
IRONWOOD       PTCLDY   N/A N/A N/A CALM      29.81F
$$

ABBREVIATIONS USED IN REMARKS
   TC - TEMPERATURE IN CELSIUS
  WCI - WIND CHILL INDEX
   HX - HEAT INDEX
  VSB - VISIBILITY




USA.gov is the U.S. government's official web portal to all federal, state and local government web resources and services.